Location: Chipmunk Meadow
(41.1540°N, 122.8814°W)
Time: 14:36:32
(UTC+00:00)

Cosmos 1048 Rocket - Pass Details

Date: 13 April 2024
Orbit: 742 x 788 km, 74.0° (Epoch: 22 May)

Event Time Altitude Azimuth Distance (km) Brightness Sun altitude
Rises 12:38:05 0° 191° (SSW) 3,261 6.9 -10.9°
Reaches altitude 10° 12:40:29 10° 189° (S) 2,333 6.2 -10.5°
Maximum altitude 12:45:45 71° 107° (ESE) 824 4.3 -9.6°
Drops below altitude 10° 12:51:01 10° 24° (NNE) 2,324 7.2 -8.6°
Sets 12:53:24 0° 22° (NNE) 3,248 7.9 -8.2°
